Total_Precipitation_Accumulation
1.37 1.47 1.51 1.05 0.83 0.75 0.78 0.75 0.71 0.69 0.67 0.70 0.77 0.85 0.78 0.78 0.76 0.80 0.84 1.05 1.15 1.30 1.55 1.71 1.71 1.58 1.49 1.38 1.33 1.21 1.07 1.08 1.16 1.21 1.22 1.30 1.38 1.64 2.01 1.84 1.68 1.20 1.12
1.03 1.13 1.27 0.95 0.70 0.69 0.69 0.69 0.65 0.63 0.61 0.59 0.62 0.79 0.83 0.94 0.95 0.94 0.97 1.18 1.33 1.59 1.69 1.69 1.60 1.39 1.36 1.24 1.14 1.05 1.02 1.12 1.21 1.30 1.27 1.18 1.44 1.78 2.01 1.82 1.78 1.12 1.06
0.75 0.80 0.85 0.84 0.69 0.61 0.62 0.65 0.67 0.66 0.62 0.56 0.57 0.73 0.87 1.08 1.19 1.16 1.15 1.40 1.68 1.74 1.68 1.63 1.35 1.13 1.11 1.00 0.97 0.97 1.03 1.13 1.24 1.50 1.58 1.20 1.16 1.78 1.84 1.67 1.31 0.93 0.94
0.58 0.62 0.59 0.65 0.63 0.57 0.57 0.58 0.59 0.60 0.60 0.59 0.66 0.78 0.87 1.00 1.17 1.26 1.32 1.56 1.73 1.64 1.58 1.33 1.08 0.96 0.88 0.80 0.81 0.86 1.00 1.17 1.44 1.82 1.87 1.43 0.93 1.37 1.60 1.40 1.10 0.92 0.88
0.55 0.54 0.65 0.66 0.61 0.57 0.52 0.56 0.57 0.59 0.60 0.62 0.69 0.77 0.84 0.97 1.19 1.33 1.34 1.50 1.50 1.38 1.29 1.13 1.00 0.84 0.74 0.69 0.72 0.83 1.00 1.25 1.47 1.74 1.59 1.53 1.34 1.37 1.39 1.30 1.12 1.06 0.99
0.58 0.55 0.62 0.65 0.60 0.59 0.53 0.51 0.55 0.57 0.64 0.66 0.77 0.86 0.91 1.05 1.19 1.24 1.31 1.44 1.37 1.29 1.21 1.10 0.93 0.76 0.67 0.65 0.71 0.79 0.97 1.27 1.34 1.12 1.11 1.25 1.15 1.24 1.25 1.36 1.26 1.11 1.01
0.78 0.75 0.70 0.72 0.69 0.63 0.52 0.49 0.52 0.56 0.66 0.70 0.78 0.86 0.89 0.97 1.03 1.12 1.28 1.36 1.26 1.20 1.06 0.99 0.89 0.73 0.73 0.78 0.78 0.79 1.02 1.27 1.13 0.96 0.99 1.31 1.16 1.00 1.23 1.46 1.45 1.24 1.01
0.85 0.86 0.82 0.84 0.80 0.74 0.61 0.56 0.58 0.63 0.70 0.73 0.76 0.79 0.82 0.86 0.90 1.01 1.24 1.28 1.14 0.99 0.92 0.94 0.89 0.78 0.77 0.83 0.79 0.82 1.01 1.10 0.87 0.90 0.84 0.95 0.87 0.94 1.20 1.41 1.45 1.32 1.12
1.03 0.97 0.91 0.88 0.78 0.80 0.79 0.69 0.70 0.77 0.80 0.78 0.77 0.75 0.75 0.79 0.88 1.02 1.23 1.25 1.09 0.90 0.83 0.84 0.84 0.78 0.73 0.80 0.85 0.93 1.11 1.25 1.06 1.08 0.83 0.89 0.87 1.07 1.30 1.43 1.49 1.43 1.34
1.42 1.19 1.05 1.08 1.08 0.96 0.90 0.84 0.89 0.94 0.94 0.92 0.83 0.83 0.85 0.92 0.98 1.15 1.23 1.19 1.07 0.92 0.81 0.78 0.80 0.73 0.75 0.78 0.86 1.06 1.32 1.23 0.93 1.02 1.04 0.88 0.94 1.26 1.57 1.54 1.61 1.66 1.60
1.77 1.51 1.28 1.17 1.15 1.08 1.01 1.04 1.28 1.27 1.18 1.12 1.10 1.09 1.11 1.28 1.38 1.50 1.31 1.26 1.15 1.06 1.06 1.04 1.05 0.98 0.93 0.87 1.04 1.31 1.30 1.11 1.13 1.25 1.22 0.99 1.17 1.55 1.84 1.81 1.78 1.78 1.76
1.92 1.58 1.52 1.41 1.26 1.17 1.03 1.14 1.50 1.39 1.30 1.36 1.44 1.35 1.53 1.77 1.92 1.57 1.48 1.56 1.58 1.61 1.57 1.65 1.75 1.43 1.21 1.33 1.80 1.84 1.27 1.23 1.38 1.44 1.33 1.24 1.54 1.98 2.19 2.17 2.12 1.94 1.87
2.18 1.82 1.69 1.56 1.48 1.49 1.57 1.39 1.50 1.61 1.65 1.68 1.71 1.77 1.85 1.72 1.68 1.63 1.73 1.89 2.00 2.00 1.94 2.22 2.25 1.77 1.86 2.26 2.34 2.09 1.57 1.51 1.64 1.59 1.66 1.70 1.81 2.28 2.70 2.63 2.54 2.28 2.09
2.43 2.11 1.88 1.74 1.74 1.82 1.77 1.70 1.59 1.64 1.64 1.75 1.92 1.91 2.05 2.17 2.08 2.12 2.23 2.18 2.30 2.41 2.67 2.72 2.86 2.47 2.48 2.35 2.21 2.17 1.99 2.05 1.93 2.13 2.49 2.24 2.01 2.33 3.02 3.09 2.96 2.70 2.29
2.59 2.26 2.21 1.94 1.86 1.91 2.04 2.11 1.87 1.99 1.95 1.95 2.13 2.27 2.32 2.50 2.50 2.54 2.54 2.55 2.38 2.55 2.73 3.11 3.06 3.27 3.25 2.88 2.46 2.32 2.32 2.37 2.30 2.44 2.69 2.70 2.54 2.61 3.35 3.74 3.55 3.23 2.79
2.54 2.36 2.29 2.16 2.19 2.27 2.27 2.32 2.36 2.38 2.42 2.36 2.34 2.41 2.47 2.68 2.96 2.98 2.86 2.84 2.63 2.61 2.93 3.24 3.24 3.72 3.62 3.45 2.95 2.67 2.48 2.43 2.43 2.57 2.85 3.03 2.95 2.92 3.34 3.82 3.99 3.89 3.48
2.30 2.40 2.54 2.66 2.84 2.91 2.89 2.84 2.78 2.81 2.77 2.83 3.00 3.01 3.07 3.03 3.15 3.07 3.06 2.92 2.91 2.93 3.15 3.25 3.38 3.77 3.56 3.49 3.31 3.01 2.80 2.59 2.46 2.67 3.05 3.36 3.02 2.95 3.31 3.77 4.14 4.08 3.89
2.33 2.44 2.68 2.77 3.15 3.31 3.34 3.43 3.35 3.27 3.20 3.33 3.39 3.41 3.41 3.33 3.20 3.28 3.08 2.90 3.08 3.14 3.35 3.62 3.62 3.71 3.81 3.74 3.55 3.21 3.09 2.97 2.53 2.62 2.81 2.99 3.18 2.75 3.16 3.78 4.01 3.77 3.77
2.69 2.96 3.28 3.37 3.34 3.44 3.63 3.77 3.54 3.48 3.40 3.32 3.25 3.37 3.32 3.15 3.07 3.41 3.26 3.28 3.32 3.53 3.47 3.20 3.73 3.89 3.86 3.78 3.31 3.25 2.88 2.84 2.74 2.56 2.71 2.79 2.97 2.92 2.95 3.07 3.60 3.42 3.61
3.07 3.46 3.67 3.69 3.92 4.21 4.40 4.30 4.04 3.63 3.33 3.20 3.15 3.14 3.13 3.12 3.05 3.36 3.19 3.20 3.43 3.79 3.88 3.79 4.00 3.89 3.75 3.81 3.23 3.06 2.74 2.50 2.50 2.43 2.27 2.54 2.64 2.38 2.52 2.72 3.10 2.65 2.88
3.10 3.34 3.65 4.07 4.41 4.53 4.35 4.27 4.20 3.90 3.58 3.21 2.95 2.91 3.02 2.92 3.01 3.37 3.08 3.48 3.53 3.70 3.88 3.85 4.04 3.93 3.71 3.80 3.73 3.21 2.65 2.31 2.23 2.08 2.10 2.31 2.24 2.29 2.58 2.96 3.18 3.10 2.74
2.93 3.21 3.63 4.09 4.41 4.31 4.42 4.63 4.57 4.34 3.65 3.28 3.11 3.05 2.98 2.90 2.89 3.00 3.49 3.46 3.55 3.72 3.75 3.70 3.79 3.61 3.35 3.65 3.81 3.65 2.99 2.61 2.22 1.83 2.04 2.07 2.19 2.43 2.44 2.50 2.90 3.22 3.04
2.95 3.36 3.64 3.97 4.14 4.17 4.38 4.52 4.22 4.01 3.52 3.38 3.37 3.20 3.05 3.03 3.01 3.13 3.38 3.46 3.50 3.37 3.53 3.70 3.53 3.47 3.35 3.41 3.60 3.71 3.24 2.73 2.27 1.95 1.83 1.90 2.26 2.49 2.38 2.33 2.31 2.53 2.63
2.91 3.48 3.88 3.92 4.01 3.89 4.01 4.12 3.95 3.60 3.35 3.25 3.24 3.01 2.90 2.84 2.83 2.94 3.06 3.24 3.36 3.27 3.37 3.28 3.31 3.41 3.37 3.21 3.37 3.29 3.14 2.93 2.76 2.36 1.99 1.84 2.03 2.20 2.21 2.04 2.07 2.35 2.49
2.63 3.03 3.43 3.78 3.85 3.67 3.61 3.65 3.78 3.62 3.35 3.13 3.03 2.92 2.85 2.83 2.67 2.64 2.79 3.02 3.13 3.03 2.97 3.18 3.42 3.35 3.17 3.07 3.19 3.21 3.34 3.20 2.88 2.72 2.36 2.08 1.92 1.75 1.89 1.94 1.93 2.02 2.26
2.45 2.79 3.06 3.30 3.29 3.22 3.17 3.21 3.32 3.39 3.35 3.12 2.90 2.92 2.88 2.74 2.59 2.53 2.59 2.86 2.95 2.88 2.83 2.93 2.99 3.01 2.98 3.09 3.10 3.01 3.17 3.16 3.04 3.02 2.62 2.26 2.00 1.62 1.62 1.68 1.76 1.86 2.01